Content
SEND FEEDBACK

Daily
Averages
Monthly
Summary
United Kingdom

LONDON, ENGLAND


Home > Europe > United Kingdom > England
Elevation: 203 feet     Latitude: 51 09N     Longitude: 000 11W

WEATHER
 
SELECT A DAY
Number of Records: 296,330;   Date Range: 7/1/96 - 10/1/14
 
SHARE

PRINT THIS DATA

[ ← Previous Day ]
WEATHER ALMANAC - MAY 10, 2013
[ Next Day → ]
[ °C ]   °F
Weather ElementAverageHighLow
Temperature53.5 °F62.6 °F (2:50 pm)48.2 °F (1:20 am)
Dewpoint46 °F48.2 °F (8:20 pm)42.8 °F (1:50 pm)
Humidity76.7 %93 % (1:20 am)52 % (1:50 pm)
Barometer29.87 in29.95 in (7:50 pm)29.74 in (12:50 am)
Wind Speed12.6 mph18.4 mph (2:50 pm)
Wind Gust33.4 mph (2:50 pm)
Weather ElementAverage
Visibility6.2 mi
Wind DirectionWSW (231.7 °)

Weather ElementTotal
Precipitation---
Heating Degree Days9.6 (Base 65)
Growing Degree Days5.4 (Base 50)
Averaged from 47 records on May 10, 2013
WEATHER CONDITIONS BREAKOUT
WIND DIRECTION BREAKOUT
WEATHER BY HOUR - MAY 10, 2013
[ °C ]   °F
Local TimeTemperatureDewpointHumidityBarometerVisibilityWind DirectionWind SpeedGust SpeedPrecipitationEventsConditions
12:50 AM50.0 °F46.4 °F87 %29.74 in6.2 miSW (230°)11.5 mphScattered Clouds
1:20 AM48.2 °F46.4 °F93 %29.74 in6.2 miSW (230°)10.4 mphScattered Clouds
1:50 AM50.0 °F46.4 °F87 %29.74 in6.2 miSW (220°)11.5 mphMostly Cloudy
2:20 AM50.0 °F44.6 °F82 %29.74 in6.2 miSW (220°)12.7 mph24.2 mphMostly Cloudy
2:50 AM48.2 °F44.6 °F87 %29.74 in6.2 miSW (220°)11.5 mphMostly Cloudy
3:20 AM48.2 °F44.6 °F87 %29.74 in6.2 miSW (220°)12.7 mphMostly Cloudy
3:50 AM48.2 °F44.6 °F87 %29.74 in6.2 miSW (220°)11.5 mphMostly Cloudy
4:20 AM50.0 °F46.4 °F87 %29.77 in6.2 miSW (230°)12.7 mphMostly Cloudy
4:50 AM50.0 °F46.4 °F87 %29.77 in6.2 miSW (230°)12.7 mphMostly Cloudy
5:20 AM50.0 °F46.4 °F87 %29.77 in6.2 miSW (230°)12.7 mphMostly Cloudy
5:50 AM50.0 °F46.4 °F87 %29.77 in6.2 miSW (230°)12.7 mphMostly Cloudy
6:20 AM50.0 °F46.4 °F87 %29.80 in6.2 miSW (230°)13.8 mphMostly Cloudy
6:50 AM50.0 °F46.4 °F87 %29.80 in6.2 miSW (230°)13.8 mphMostly Cloudy
7:20 AM51.8 °F46.4 °F82 %29.80 in6.2 miSW (220°)11.5 mphScattered Clouds
7:50 AM51.8 °F46.4 °F82 %29.83 in6.2 miSW (230°)12.7 mphMostly Cloudy
8:20 AM51.8 °F46.4 °F82 %29.83 in6.2 miSW (230°)11.5 mphMostly Cloudy
8:50 AM51.8 °F46.4 °F82 %29.86 in6.2 miWSW (240°)12.7 mphMostly Cloudy
9:20 AM53.6 °F46.4 °F77 %29.86 in6.2 miWSW (240°)10.4 mphMostly Cloudy
9:50 AM53.6 °F46.4 °F77 %29.86 in6.2 miSW (230°)13.8 mphMostly Cloudy
10:20 AM53.6 °F46.4 °F77 %29.86 in6.2 miSW (230°)12.7 mphMostly Cloudy
10:50 AM53.6 °F46.4 °F77 %29.86 in6.2 miSW (230°)12.7 mphMostly Cloudy
11:20 AM53.6 °F46.4 °F77 %29.89 in6.2 miWSW (240°)12.7 mphMostly Cloudy
11:50 AM53.6 °F46.4 °F77 %29.89 in6.2 miSW (230°)11.5 mphMostly Cloudy
12:20 PM53.6 °F44.6 °F72 %29.92 in6.2 miWSW (240°)13.8 mphMostly Cloudy
12:50 PM55.4 °F44.6 °F67 %29.92 in6.2 miWSW (250°)13.8 mphMostly Cloudy
1:20 PM57.2 °F44.6 °F63 %29.92 in6.2 miWSW (250°)16.1 mphScattered Clouds
1:50 PM60.8 °F42.8 °F52 %29.92 in6.2 miWSW (250°)17.3 mphPartly Cloudy
2:20 PM60.8 °F42.8 °F52 %29.92 in6.2 miWSW (240°)16.1 mphPartly Cloudy
2:50 PM62.6 °F44.6 °F52 %29.92 in6.2 miWSW (250°)18.4 mph33.4 mphScattered Clouds
3:20 PM62.6 °F44.6 °F52 %29.92 in6.2 miWSW (240°)13.8 mphScattered Clouds
3:50 PM60.8 °F46.4 °F59 %29.92 in6.2 miWSW (240°)15.0 mphScattered Clouds
4:20 PM60.8 °F46.4 °F59 %29.92 in6.2 miWSW (240°)17.3 mphScattered Clouds
4:50 PM59.0 °F46.4 °F63 %29.92 in6.2 miWSW (240°)15.0 mphScattered Clouds
5:20 PM57.2 °F46.4 °F67 %29.92 in6.2 miWSW (240°)13.8 mphScattered Clouds
5:50 PM57.2 °F46.4 °F67 %29.92 in6.2 miWSW (240°)13.8 mphScattered Clouds
6:20 PM57.2 °F46.4 °F67 %29.92 in6.2 miSW (230°)12.7 mphScattered Clouds
6:50 PM57.2 °F46.4 °F67 %29.92 in6.2 miSW (230°)13.8 mphPartly Cloudy
7:20 PM55.4 °F46.4 °F72 %29.92 in6.2 miSW (230°)16.1 mphPartly Cloudy
7:50 PM53.6 °F46.4 °F77 %29.95 in6.2 miSW (230°)11.5 mphPartly Cloudy
8:20 PM53.6 °F48.2 °F82 %29.95 in6.2 miSW (220°)10.4 mphScattered Clouds
8:50 PM51.8 °F46.4 °F82 %29.95 in6.2 miSW (220°)12.7 mphMostly Cloudy
9:20 PM51.8 °F46.4 °F82 %29.95 in6.2 miSW (220°)9.2 mphMostly Cloudy
9:50 PM51.8 °F46.4 °F82 %29.95 in6.2 miSW (220°)8.1 mphMostly Cloudy
10:20 PM51.8 °F46.4 °F82 %29.95 in6.2 miSW (220°)9.2 mphMostly Cloudy
10:50 PM51.8 °F48.2 °F88 %29.95 in6.2 miSW (220°)9.2 mphMostly Cloudy
11:20 PM51.8 °F48.2 °F88 %29.95 in6.2 miSW (220°)9.2 mphRainLight Rain
11:50 PM48.2 °F44.6 °F87 %29.95 in6.2 miWSW (250°)4.6 mphRainLight Rain
Hourly data recorded from EGKK, located miles away from London, England







STORIES FROM OUR PARTNERS